QPF
0.00 0.00 0.00 0.00 0.00 0.00 0.01 0.01 0.00 0.00 0.00 0.00 0.00 0.00 0.00 0.00 0.00 0.00 0.00 0.00 0.00 0.00 0.00 0.00 0.02 0.05 0.02 0.01 0.01 0.00 0.00 0.01 0.04 0.06 0.05 0.06 0.08 0.00 0.01 0.00 0.00 0.00 0.01
0.00 0.00 0.00 0.00 0.00 0.00 0.00 0.00 0.00 0.00 0.00 0.00 0.01 0.00 0.00 0.00 0.00 0.00 0.00 0.00 0.00 0.00 0.00 0.00 0.03 0.06 0.04 0.05 0.08 0.03 0.02 0.01 0.01 0.01 0.01 0.03 0.03 0.02 0.02 0.01 0.00 0.01 0.02
0.00 0.00 0.00 0.00 0.00 0.00 0.00 0.00 0.00 0.00 0.00 0.00 0.00 0.00 0.00 0.01 0.00 0.00 0.00 0.00 0.00 0.04 0.00 0.00 0.01 0.03 0.04 0.04 0.05 0.02 0.03 0.01 0.00 0.00 0.01 0.00 0.00 0.02 0.00 0.00 0.00 0.02 0.01
0.00 0.00 0.00 0.00 0.00 0.00 0.00 0.00 0.00 0.00 0.00 0.00 0.00 0.01 0.02 0.00 0.00 0.00 0.00 0.00 0.00 0.00 0.00 0.00 0.00 0.03 0.02 0.03 0.01 0.02 0.01 0.00 0.00 0.00 0.00 0.00 0.00 0.00 0.00 0.00 0.00 0.01 0.00
0.01 0.00 0.00 0.00 0.00 0.00 0.00 0.00 0.00 0.00 0.00 0.00 0.00 0.00 0.02 0.01 0.00 0.01 0.00 0.01 0.00 0.00 0.00 0.00 0.00 0.03 0.02 0.02 0.03 0.01 0.01 0.01 0.00 0.00 0.00 0.00 0.00 0.00 0.00 0.00 0.00 0.00 0.00
0.03 0.00 0.00 0.00 0.00 0.00 0.00 0.00 0.00 0.00 0.00 0.00 0.00 0.00 0.00 0.00 0.00 0.00 0.00 0.01 0.00 0.00 0.00 0.00 0.00 0.01 0.02 0.05 0.06 0.06 0.01 0.01 0.01 0.00 0.00 0.00 0.00 0.00 0.00 0.00 0.00 0.00 0.00
0.01 0.00 0.00 0.00 0.00 0.00 0.00 0.00 0.00 0.00 0.00 0.00 0.00 0.00 0.00 0.00 0.00 0.00 0.00 0.00 0.00 0.00 0.00 0.00 0.00 0.00 0.00 0.04 0.09 0.11 0.07 0.02 0.01 0.01 0.00 0.00 0.00 0.00 0.00 0.00 0.00 0.00 0.00
0.00 0.00 0.00 0.00 0.00 0.00 0.00 0.00 0.00 0.00 0.00 0.00 0.00 0.00 0.00 0.00 0.00 0.00 0.00 0.00 0.00 0.00 0.00 0.00 0.00 0.00 0.00 0.00 0.00 0.07 0.05 0.05 0.01 0.00 0.00 0.00 0.00 0.00 0.00 0.00 0.00 0.00 0.00
0.00 0.00 0.00 0.00 0.00 0.00 0.00 0.00 0.00 0.00 0.00 0.01 0.00 0.00 0.00 0.00 0.00 0.00 0.00 0.00 0.00 0.00 0.00 0.00 0.00 0.00 0.00 0.00 0.00 0.02 0.04 0.05 0.07 0.02 0.00 0.01 0.00 0.00 0.00 0.00 0.00 0.00 0.01
0.00 0.00 0.00 0.00 0.00 0.00 0.00 0.00 0.00 0.00 0.00 0.00 0.00 0.00 0.00 0.00 0.00 0.00 0.00 0.00 0.00 0.00 0.00 0.00 0.00 0.00 0.00 0.00 0.00 0.00 0.00 0.00 0.05 0.06 0.04 0.02 0.00 0.00 0.00 0.00 0.00 0.00 0.00
0.00 0.00 0.00 0.00 0.00 0.00 0.00 0.00 0.00 0.00 0.00 0.00 0.00 0.00 0.00 0.00 0.00 0.00 0.00 0.00 0.00 0.00 0.00 0.00 0.00 0.00 0.00 0.00 0.00 0.00 0.00 0.00 0.00 0.04 0.07 0.09 0.01 0.00 0.00 0.00 0.00 0.00 0.00
0.00 0.00 0.00 0.00 0.00 0.00 0.00 0.00 0.00 0.00 0.00 0.00 0.00 0.00 0.00 0.00 0.00 0.00 0.00 0.00 0.00 0.00 0.00 0.00 0.00 0.00 0.00 0.00 0.00 0.00 0.00 0.00 0.00 0.00 0.01 0.05 0.05 0.01 0.00 0.01 0.01 0.01 0.00
0.00 0.00 0.00 0.00 0.00 0.00 0.00 0.00 0.00 0.00 0.00 0.00 0.00 0.00 0.00 0.00 0.00 0.00 0.00 0.00 0.00 0.00 0.00 0.00 0.00 0.00 0.01 0.01 0.01 0.01 0.00 0.00 0.00 0.00 0.00 0.00 0.01 0.02 0.03 0.05 0.02 0.03 0.00
0.00 0.00 0.00 0.00 0.00 0.00 0.00 0.00 0.00 0.00 0.00 0.00 0.00 0.00 0.00 0.00 0.00 0.00 0.00 0.00 0.00 0.00 0.00 0.00 0.00 0.00 0.00 0.00 0.05 0.04 0.00 0.01 0.03 0.00 0.02 0.02 0.00 0.00 0.00 0.00 0.01 0.01 0.00
0.00 0.00 0.00 0.00 0.00 0.00 0.00 0.01 0.03 0.02 0.00 0.00 0.00 0.00 0.00 0.00 0.00 0.00 0.01 0.00 0.00 0.00 0.00 0.00 0.00 0.00 0.00 0.00 0.00 0.00 0.01 0.05 0.03 0.01 0.00 0.00 0.00 0.00 0.00 0.00 0.00 0.02 0.02
0.00 0.00 0.00 0.00 0.01 0.02 0.01 0.02 0.07 0.15 0.04 0.01 0.00 0.00 0.00 0.00 0.01 0.01 0.01 0.03 0.00 0.00 0.00 0.00 0.00 0.00 0.00 0.00 0.00 0.00 0.00 0.00 0.01 0.02 0.02 0.06 0.00 0.00 0.00 0.00 0.00 0.00 0.00
0.00 0.00 0.00 0.01 0.04 0.03 0.02 0.00 0.20 0.20 0.12 0.10 0.02 0.01 0.00 0.00 0.01 0.02 0.01 0.00 0.00 0.00 0.00 0.00 0.00 0.00 0.00 0.00 0.00 0.00 0.00 0.00 0.01 0.06 0.05 0.03 0.01 0.00 0.00 0.00 0.00 0.00 0.00
0.00 0.00 0.00 0.00 0.01 0.04 0.06 0.00 0.03 0.09 0.05 0.02 0.04 0.02 0.02 0.01 0.00 0.00 0.00 0.00 0.00 0.00 0.00 0.00 0.00 0.00 0.00 0.00 0.00 0.00 0.00 0.00 0.00 0.00 0.08 0.10 0.06 0.04 0.01 0.00 0.00 0.00 0.00
0.00 0.00 0.00 0.00 0.00 0.01 0.01 0.01 0.03 0.04 0.02 0.00 0.01 0.03 0.03 0.02 0.00 0.00 0.00 0.00 0.00 0.02 0.00 0.00 0.00 0.00 0.00 0.00 0.00 0.00 0.00 0.00 0.00 0.00 0.00 0.05 0.16 0.10 0.04 0.01 0.00 0.00 0.00
0.00 0.00 0.00 0.00 0.00 0.01 0.01 0.01 0.00 0.00 0.00 0.00 0.00 0.00 0.02 0.01 0.00 0.00 0.00 0.01 0.10 0.07 0.00 0.00 0.00 0.00 0.00 0.00 0.00 0.00 0.00 0.00 0.00 0.00 0.00 0.01 0.06 0.13 0.07 0.04 0.01 0.01 0.03
0.00 0.00 0.00 0.00 0.00 0.00 0.00 0.00 0.00 0.00 0.00 0.00 0.00 0.00 0.00 0.00 0.00 0.00 0.02 0.04 0.06 0.05 0.05 0.02 0.00 0.00 0.00 0.00 0.00 0.00 0.00 0.00 0.00 0.00 0.00 0.00 0.00 0.02 0.04 0.07 0.03 0.04 0.02
0.00 0.00 0.00 0.00 0.00 0.00 0.00 0.00 0.00 0.00 0.00 0.00 0.00 0.01 0.01 0.01 0.02 0.05 0.06 0.03 0.05 0.05 0.05 0.05 0.02 0.00 0.00 0.00 0.00 0.00 0.00 0.00 0.00 0.00 0.00 0.00 0.00 0.01 0.07 0.06 0.04 0.02 0.01
0.00 0.00 0.00 0.00 0.00 0.00 0.00 0.01 0.00 0.01 0.01 0.00 0.01 0.04 0.06 0.04 0.01 0.00 0.00 0.01 0.03 0.04 0.03 0.04 0.00 0.00 0.00 0.00 0.00 0.00 0.00 0.01 0.01 0.00 0.00 0.00 0.00 0.00 0.01 0.01 0.00 0.00 0.00
0.00 0.00 0.00 0.00 0.00 0.00 0.00 0.02 0.01 0.01 0.03 0.02 0.00 0.01 0.03 0.04 0.03 0.02 0.02 0.01 0.00 0.01 0.02 0.00 0.00 0.00 0.00 0.00 0.00 0.00 0.00 0.00 0.00 0.00 0.00 0.00 0.00 0.00 0.00 0.00 0.00 0.00 0.00
0.00 0.00 0.00 0.00 0.00 0.00 0.01 0.11 0.05 0.04 0.01 0.00 0.00 0.01 0.03 0.03 0.04 0.03 0.01 0.00 0.00 0.00 0.00 0.00 0.00 0.00 0.00 0.00 0.00 0.00 0.00 0.00 0.00 0.00 0.00 0.00 0.00 0.00 0.00 0.00 0.00 0.00 0.00
0.00 0.01 0.01 0.02 0.02 0.02 0.13 0.22 0.13 0.08 0.01 0.00 0.00 0.01 0.03 0.05 0.03 0.01 0.00 0.00 0.00 0.00 0.00 0.00 0.00 0.00 0.00 0.00 0.00 0.00 0.00 0.00 0.00 0.00 0.00 0.00 0.00 0.00 0.00 0.00 0.00 0.00 0.00
MSLP
1019.57 1019.56 1019.36 1019.11 1019.13 1019.18 1019.24 1019.14 1018.88 1018.54 1018.51 1018.49 1018.27 1018.19 1018.35 1018.28 1018.36 1018.41 1018.64 1018.75 1018.76 1018.88 1019.00 1019.17 1019.30 1019.53 1019.66 1019.95 1020.28 1020.42 1020.55 1020.71 1020.92 1021.09 1021.16 1021.20 1021.29 1021.47 1021.57 1021.79 1021.89 1022.12 1022.30
1019.33 1019.29 1019.14 1018.99 1018.88 1019.05 1018.99 1018.88 1018.77 1018.71 1018.49 1018.62 1018.15 1017.87 1017.91 1017.72 1017.74 1017.77 1018.04 1018.34 1018.41 1018.52 1018.54 1018.79 1019.02 1019.31 1019.41 1019.55 1019.76 1019.90 1020.09 1020.33 1020.52 1020.57 1020.68 1020.83 1021.03 1021.18 1021.37 1021.53 1021.68 1021.90 1022.03
1019.09 1018.98 1018.96 1018.87 1018.75 1018.91 1018.94 1018.89 1018.81 1018.74 1018.54 1018.47 1018.48 1018.00 1017.55 1017.69 1017.89 1017.79 1017.75 1017.96 1018.15 1018.19 1018.32 1018.48 1018.69 1018.89 1019.13 1019.28 1019.49 1019.59 1019.75 1019.94 1020.11 1020.23 1020.37 1020.50 1020.71 1020.96 1021.18 1021.32 1021.44 1021.58 1021.77
1018.92 1018.90 1018.75 1018.80 1018.75 1018.65 1018.78 1018.88 1019.01 1019.08 1019.07 1018.79 1018.56 1018.42 1018.01 1017.96 1017.93 1017.88 1017.86 1018.10 1018.16 1018.13 1018.26 1018.44 1018.64 1018.86 1018.96 1019.05 1019.16 1019.23 1019.41 1019.56 1019.81 1020.01 1020.15 1020.25 1020.42 1020.59 1020.83 1021.09 1021.18 1021.36 1021.56
1018.77 1018.90 1018.78 1018.77 1018.82 1018.78 1018.78 1018.91 1019.07 1019.08 1019.06 1018.87 1018.58 1018.55 1018.30 1018.40 1018.20 1017.98 1018.09 1018.11 1018.44 1018.38 1018.22 1018.44 1018.57 1018.58 1018.70 1018.80 1018.88 1018.97 1019.12 1019.27 1019.49 1019.75 1019.92 1020.01 1020.14 1020.33 1020.49 1020.70 1020.93 1021.12 1021.29
1018.76 1018.84 1018.95 1018.88 1018.92 1018.93 1018.92 1018.98 1019.18 1019.13 1019.19 1019.12 1018.86 1018.64 1018.45 1018.42 1018.17 1018.19 1018.06 1018.05 1018.36 1018.31 1018.33 1018.48 1018.52 1018.43 1018.48 1018.64 1018.78 1018.82 1018.96 1019.15 1019.32 1019.63 1019.81 1019.91 1019.98 1020.12 1020.30 1020.51 1020.64 1020.84 1021.09
1018.57 1018.69 1018.86 1018.89 1018.92 1019.04 1019.10 1019.19 1019.19 1019.33 1019.43 1019.25 1019.13 1018.98 1018.73 1018.60 1018.32 1018.31 1018.05 1018.10 1018.17 1018.08 1018.32 1018.40 1018.65 1018.64 1018.61 1018.76 1018.69 1018.73 1018.79 1018.99 1019.21 1019.52 1019.80 1019.84 1019.91 1020.05 1020.15 1020.32 1020.54 1020.64 1020.79
1018.30 1018.42 1018.52 1018.73 1018.84 1019.04 1019.03 1019.26 1019.31 1019.36 1019.45 1019.42 1019.42 1019.58 1019.40 1018.89 1018.58 1018.34 1018.34 1018.42 1018.37 1018.24 1018.29 1018.35 1018.45 1018.55 1018.68 1018.75 1018.66 1018.56 1018.60 1018.82 1019.11 1019.38 1019.52 1019.64 1019.83 1020.04 1020.16 1020.21 1020.31 1020.51 1020.68
1017.91 1018.19 1018.33 1018.51 1018.68 1018.71 1018.93 1019.10 1019.23 1019.15 1019.37 1019.45 1019.41 1019.44 1019.68 1019.66 1019.36 1018.65 1018.50 1018.47 1018.36 1018.19 1018.20 1018.33 1018.41 1018.39 1018.49 1018.52 1018.61 1018.50 1018.48 1018.75 1018.98 1019.18 1019.33 1019.45 1019.61 1019.86 1020.00 1020.16 1020.24 1020.31 1020.44
1017.66 1017.90 1018.05 1018.32 1018.56 1018.58 1018.81 1018.92 1018.98 1019.10 1019.25 1019.38 1019.45 1019.35 1019.50 1019.66 1019.58 1019.26 1018.75 1018.44 1018.27 1018.00 1018.01 1018.04 1018.11 1018.21 1018.28 1018.30 1018.36 1018.37 1018.44 1018.55 1018.77 1018.98 1019.07 1019.22 1019.48 1019.66 1019.79 1019.88 1020.15 1020.30 1020.34
1017.43 1017.61 1017.83 1018.13 1018.49 1018.52 1018.77 1018.88 1018.97 1019.18 1019.31 1019.45 1019.49 1019.58 1019.56 1019.63 1019.69 1019.63 1019.37 1018.84 1018.15 1017.86 1017.84 1017.74 1017.84 1018.04 1018.07 1018.07 1018.19 1018.23 1018.19 1018.27 1018.57 1018.76 1018.86 1018.99 1019.16 1019.40 1019.58 1019.67 1019.84 1020.09 1020.22
1017.43 1017.48 1017.64 1017.94 1018.27 1018.49 1018.59 1018.68 1018.86 1019.07 1019.26 1019.47 1019.54 1019.61 1019.65 1019.70 1019.67 1019.71 1019.75 1019.36 1018.90 1018.01 1017.69 1017.61 1017.69 1017.62 1017.76 1017.94 1018.01 1018.05 1018.01 1017.98 1018.20 1018.34 1018.51 1018.69 1018.85 1019.06 1019.20 1019.39 1019.51 1019.66 1019.86
1017.37 1017.45 1017.51 1017.76 1017.98 1018.19 1018.30 1018.44 1018.76 1018.96 1019.06 1019.30 1019.41 1019.54 1019.65 1019.60 1019.64 1019.71 1019.81 1019.59 1019.34 1018.63 1017.97 1017.51 1017.46 1017.44 1017.50 1017.70 1017.80 1017.76 1017.75 1017.79 1017.84 1018.00 1018.24 1018.44 1018.64 1018.80 1019.01 1019.09 1019.28 1019.41 1019.59
1017.01 1016.98 1017.23 1017.51 1017.67 1017.93 1018.20 1018.43 1018.65 1018.83 1018.97 1019.07 1019.25 1019.38 1019.45 1019.54 1019.62 1019.55 1019.55 1019.52 1019.32 1018.98 1018.52 1017.83 1017.30 1017.16 1017.17 1017.18 1017.27 1017.39 1017.32 1017.40 1017.55 1017.68 1017.87 1018.04 1018.24 1018.46 1018.69 1018.90 1019.01 1019.19 1019.37
1016.68 1016.85 1017.01 1017.35 1017.47 1017.71 1017.95 1018.17 1018.50 1018.67 1018.89 1019.03 1019.04 1019.15 1019.31 1019.27 1019.29 1019.36 1019.36 1019.35 1019.31 1019.11 1018.60 1017.98 1017.59 1016.99 1016.80 1016.90 1016.94 1016.95 1016.96 1017.04 1017.15 1017.26 1017.44 1017.60 1017.84 1018.15 1018.38 1018.57 1018.79 1019.02 1019.25
1016.41 1016.64 1016.92 1017.19 1017.36 1017.49 1017.71 1018.01 1018.28 1018.49 1018.73 1018.72 1018.79 1018.85 1018.90 1018.93 1019.01 1019.08 1019.08 1019.13 1019.12 1019.10 1018.87 1018.17 1017.65 1017.31 1016.83 1016.55 1016.52 1016.64 1016.65 1016.75 1016.74 1016.87 1017.08 1017.26 1017.39 1017.71 1018.00 1018.27 1018.56 1018.85 1019.12
1016.04 1016.38 1016.64 1016.85 1017.05 1017.27 1017.42 1017.72 1017.96 1018.15 1018.33 1018.31 1018.39 1018.44 1018.43 1018.44 1018.49 1018.59 1018.72 1018.74 1018.74 1018.91 1018.72 1018.06 1017.75 1017.29 1016.93 1016.69 1016.33 1016.41 1016.47 1016.44 1016.44 1016.63 1016.68 1016.71 1017.05 1017.20 1017.48 1017.79 1018.19 1018.56 1018.84
1015.58 1015.90 1016.20 1016.44 1016.62 1016.75 1016.91 1017.25 1017.55 1017.76 1017.88 1017.92 1017.80 1018.11 1018.05 1017.98 1017.99 1018.06 1018.14 1018.13 1018.16 1018.19 1018.32 1017.77 1017.51 1017.27 1016.97 1016.50 1016.31 1016.25 1016.06 1016.12 1016.09 1016.05 1016.29 1016.54 1016.57 1016.73 1016.97 1017.31 1017.69 1018.12 1018.52
1015.07 1015.43 1015.79 1016.04 1016.24 1016.47 1016.75 1016.95 1017.08 1017.07 1017.08 1017.03 1017.08 1017.40 1017.36 1017.48 1017.38 1017.41 1017.49 1017.53 1017.51 1017.42 1017.44 1017.44 1017.07 1016.84 1016.60 1016.41 1016.26 1016.09 1016.00 1015.76 1015.70 1015.78 1015.89 1016.07 1016.30 1016.42 1016.38 1016.74 1017.12 1017.63 1018.14
1014.51 1014.87 1015.15 1015.41 1015.68 1015.99 1016.17 1016.24 1016.34 1016.53 1016.60 1016.60 1016.63 1016.76 1016.84 1016.92 1016.79 1016.72 1016.75 1016.71 1016.77 1016.76 1016.78 1016.76 1016.64 1016.46 1016.19 1015.90 1016.06 1016.11 1015.91 1015.86 1015.75 1015.50 1015.62 1015.78 1015.92 1016.04 1016.31 1016.40 1016.77 1017.06 1017.67
1013.87 1014.18 1014.53 1014.84 1015.12 1015.36 1015.56 1015.78 1015.87 1015.93 1016.04 1016.11 1016.15 1016.13 1016.05 1016.00 1016.04 1016.19 1016.39 1016.08 1016.25 1016.35 1016.35 1016.17 1016.03 1015.92 1015.70 1015.76 1015.73 1015.64 1015.66 1015.59 1015.66 1015.61 1015.67 1015.66 1015.68 1015.75 1016.03 1016.47 1016.73 1017.05 1017.44
1013.33 1013.67 1014.04 1014.41 1014.61 1014.78 1014.83 1015.01 1015.20 1015.42 1015.43 1015.34 1015.29 1015.32 1015.48 1015.70 1015.72 1015.63 1015.76 1015.72 1015.88 1015.92 1015.77 1015.67 1015.36 1015.23 1015.08 1015.16 1015.09 1015.08 1015.21 1015.32 1015.24 1015.08 1015.55 1015.60 1015.64 1015.82 1015.93 1016.25 1016.53 1016.88 1017.31
1012.81 1013.09 1013.49 1013.64 1013.79 1013.92 1014.06 1014.30 1014.50 1014.63 1014.73 1014.79 1014.86 1014.88 1015.11 1015.34 1015.34 1015.68 1015.63 1015.68 1015.59 1015.58 1015.50 1015.25 1014.96 1014.64 1014.47 1014.38 1014.47 1014.48 1014.66 1014.44 1014.28 1014.50 1014.90 1015.52 1015.88 1016.09 1016.07 1016.19 1016.45 1016.87 1017.39
1011.93 1012.23 1012.55 1012.72 1013.02 1013.38 1013.66 1013.75 1013.74 1013.99 1014.37 1014.65 1015.02 1015.46 1015.63 1015.71 1015.71 1015.03 1015.35 1015.57 1015.62 1015.50 1015.48 1015.29 1015.09 1014.72 1014.57 1014.44 1014.33 1014.09 1014.12 1014.24 1014.19 1014.16 1014.31 1015.26 1016.17 1016.57 1016.68 1016.54 1016.62 1016.98 1017.51
1011.31 1011.47 1011.62 1012.09 1012.59 1012.86 1013.26 1013.36 1013.82 1014.25 1014.81 1014.72 1014.82 1015.19 1015.30 1015.71 1015.83 1015.69 1014.85 1015.32 1015.82 1015.45 1015.04 1015.00 1014.79 1014.69 1014.59 1014.43 1014.31 1014.38 1014.21 1014.25 1014.03 1013.98 1014.10 1014.70 1016.15 1016.89 1017.29 1017.44 1017.21 1017.29 1017.67
1010.38 1010.87 1011.29 1011.53 1011.84 1012.26 1012.68 1013.23 1013.75 1014.16 1014.36 1014.43 1014.73 1015.04 1015.07 1015.67 1015.52 1014.97 1014.91 1015.79 1015.69 1015.11 1014.84 1014.66 1014.38 1014.13 1014.15 1014.04 1014.06 1014.12 1013.97 1013.82 1013.83 1013.61 1013.68 1014.36 1015.62 1016.44 1017.56 1018.00 1017.92 1017.90 1018.20
Thickness
5757 5758 5760 5764 5765 5766 5765 5765 5766 5770 5768 5767 5769 5769 5766 5765 5763 5762 5759 5757 5755 5752 5750 5747 5744 5740 5740 5736 5734 5732 5730 5729 5726 5726 5726 5727 5728 5726 5726 5725 5724 5722 5721
5759 5761 5763 5765 5768 5768 5769 5770 5770 5770 5771 5769 5772 5773 5772 5773 5770 5769 5767 5764 5761 5759 5758 5753 5749 5745 5743 5741 5739 5738 5736 5734 5733 5732 5732 5732 5731 5730 5729 5728 5727 5725 5724
5761 5764 5765 5768 5770 5769 5770 5771 5772 5772 5773 5772 5772 5774 5777 5775 5773 5773 5773 5769 5766 5765 5763 5760 5756 5752 5749 5745 5742 5743 5741 5739 5738 5737 5736 5735 5734 5732 5730 5729 5729 5728 5727
5761 5764 5767 5769 5770 5772 5772 5772 5772 5772 5771 5772 5774 5774 5778 5776 5775 5774 5774 5771 5769 5767 5767 5764 5760 5757 5754 5751 5748 5746 5747 5746 5742 5740 5740 5739 5738 5737 5734 5732 5731 5730 5729
5761 5762 5766 5769 5770 5772 5773 5773 5772 5772 5771 5773 5775 5776 5777 5775 5775 5775 5773 5773 5770 5768 5769 5767 5765 5764 5761 5758 5754 5753 5750 5749 5747 5745 5743 5743 5742 5741 5739 5737 5735 5734 5732
5761 5762 5764 5766 5768 5770 5772 5773 5771 5773 5772 5771 5774 5775 5776 5775 5776 5774 5775 5774 5772 5772 5772 5770 5769 5768 5765 5762 5759 5759 5756 5753 5751 5748 5746 5746 5746 5744 5742 5740 5739 5738 5736
5761 5763 5763 5764 5766 5768 5770 5772 5773 5771 5772 5772 5770 5771 5773 5774 5775 5774 5775 5775 5773 5774 5772 5771 5768 5768 5766 5763 5763 5762 5762 5758 5754 5751 5748 5748 5747 5746 5745 5743 5741 5741 5740
5762 5763 5764 5764 5765 5767 5770 5770 5770 5770 5772 5772 5767 5764 5759 5768 5773 5776 5775 5773 5772 5773 5772 5770 5770 5768 5767 5765 5766 5766 5765 5763 5758 5754 5753 5752 5750 5747 5746 5745 5745 5743 5742
5765 5764 5764 5765 5766 5768 5768 5770 5770 5771 5768 5771 5772 5766 5757 5754 5760 5773 5774 5773 5774 5776 5774 5773 5770 5769 5768 5768 5768 5768 5767 5764 5761 5759 5757 5756 5754 5751 5749 5747 5746 5746 5745
5765 5765 5765 5765 5766 5767 5767 5769 5771 5771 5770 5767 5769 5771 5768 5764 5757 5757 5770 5773 5776 5778 5778 5776 5774 5772 5770 5771 5770 5769 5768 5765 5763 5760 5760 5759 5756 5753 5752 5751 5748 5747 5746
5765 5764 5765 5765 5765 5766 5765 5766 5767 5768 5768 5766 5764 5764 5764 5763 5762 5757 5755 5763 5774 5778 5778 5778 5777 5774 5773 5773 5771 5769 5769 5767 5764 5762 5761 5760 5758 5756 5754 5752 5750 5749 5747
5764 5764 5765 5764 5764 5764 5764 5764 5765 5766 5765 5764 5764 5762 5760 5759 5758 5757 5753 5757 5760 5772 5777 5778 5777 5776 5774 5773 5772 5771 5770 5770 5767 5766 5764 5761 5760 5758 5756 5754 5752 5750 5748
5762 5763 5765 5764 5763 5763 5762 5762 5764 5764 5765 5763 5762 5760 5759 5760 5760 5758 5755 5754 5754 5764 5769 5776 5776 5775 5774 5773 5772 5771 5771 5771 5770 5768 5765 5762 5760 5758 5756 5755 5752 5751 5749
5763 5765 5764 5763 5763 5762 5761 5760 5761 5762 5762 5762 5760 5759 5758 5758 5758 5758 5756 5754 5752 5755 5760 5766 5773 5773 5774 5773 5772 5772 5771 5770 5769 5768 5766 5764 5761 5758 5756 5754 5753 5750 5748
5763 5762 5761 5761 5761 5760 5760 5759 5759 5759 5758 5758 5759 5758 5756 5757 5757 5757 5756 5755 5753 5748 5751 5761 5762 5770 5771 5770 5770 5769 5769 5769 5768 5768 5766 5765 5762 5758 5755 5753 5751 5749 5746
5760 5760 5760 5759 5759 5758 5756 5757 5757 5755 5753 5755 5756 5755 5755 5756 5755 5755 5754 5754 5753 5751 5747 5758 5761 5764 5767 5768 5768 5767 5767 5767 5767 5766 5765 5762 5762 5758 5755 5751 5748 5745 5743
5760 5758 5759 5759 5759 5758 5757 5755 5754 5754 5753 5753 5754 5754 5755 5756 5756 5755 5754 5753 5752 5750 5746 5754 5758 5762 5762 5763 5764 5764 5763 5763 5764 5763 5762 5761 5758 5757 5753 5750 5746 5742 5740
5761 5760 5759 5759 5760 5759 5758 5756 5753 5753 5752 5752 5754 5751 5752 5755 5755 5755 5754 5753 5753 5754 5749 5749 5755 5757 5758 5762 5760 5759 5759 5758 5759 5760 5759 5757 5757 5755 5751 5747 5743 5739 5736
5762 5761 5760 5758 5758 5758 5756 5754 5755 5756 5756 5757 5757 5754 5754 5754 5754 5754 5754 5753 5754 5756 5755 5751 5751 5756 5757 5758 5757 5756 5755 5755 5755 5755 5755 5753 5751 5749 5749 5744 5741 5736 5730
5764 5762 5761 5760 5759 5758 5757 5758 5759 5757 5757 5759 5759 5758 5756 5755 5755 5755 5755 5754 5753 5753 5754 5753 5752 5752 5754 5756 5754 5750 5749 5750 5748 5750 5749 5747 5746 5745 5742 5740 5736 5733 5726
5767 5765 5763 5760 5759 5760 5760 5759 5760 5760 5758 5757 5757 5758 5758 5759 5758 5756 5752 5753 5750 5747 5748 5750 5751 5751 5751 5749 5746 5749 5746 5745 5744 5743 5742 5741 5739 5737 5736 5732 5729 5725 5721
5768 5766 5763 5760 5760 5761 5762 5761 5760 5758 5758 5758 5757 5757 5756 5754 5753 5754 5753 5752 5748 5745 5746 5746 5750 5749 5749 5747 5747 5745 5742 5739 5736 5740 5735 5733 5732 5730 5728 5727 5724 5720 5716
5768 5766 5763 5764 5765 5765 5764 5762 5761 5761 5759 5758 5757 5756 5753 5750 5748 5745 5745 5745 5744 5742 5742 5742 5745 5748 5749 5749 5746 5743 5739 5739 5739 5738 5734 5727 5724 5722 5721 5720 5718 5714 5709
5770 5768 5767 5768 5768 5766 5763 5762 5764 5761 5757 5755 5750 5744 5738 5735 5734 5740 5737 5736 5735 5734 5732 5735 5737 5740 5741 5742 5740 5740 5738 5734 5734 5733 5731 5721 5714 5710 5710 5710 5709 5706 5700
5769 5769 5770 5768 5765 5763 5759 5758 5756 5751 5745 5744 5740 5734 5730 5722 5713 5717 5729 5727 5723 5724 5728 5729 5731 5732 5732 5732 5732 5730 5728 5723 5723 5724 5725 5718 5706 5699 5697 5696 5697 5695 5691
5772 5770 5767 5767 5765 5762 5757 5753 5749 5745 5741 5739 5733 5728 5724 5713 5705 5710 5719 5714 5715 5718 5722 5723 5726 5728 5726 5725 5724 5723 5722 5719 5716 5718 5718 5712 5702 5696 5689 5683 5682 5681 5678